DMSP 5D-2 F12 DEB

基本信息
目录编号:
23277
目录名称:
DMSP 5D-2 F12 DEB
国际标识:
1994-057E
轨道中心:
EARTH
物体状态:
已陨落(2023-12-30)
发射日期:
1994-08-29 UTC
轨道信息
数据来源: 国际轨道数据
星历时间: 2023-12-29T10:24:43+0800
半长轴: 6573.735km
偏心率: 0.0004037
轨道倾角: 97.983°
近地点辐角: 279.019°
升交点赤经: 48.226°
平近点角: 81.065°
近地点: 192.946km
远地点: 198.254km
周期: 88.405分钟
每日圈数: 16.288629
详细信息
发射场:
AFWTR
轨道高度:
LEO
数据来源:
AOE Integration Group
参考系:
TEME
时间系统:
UTC
历元类型:
SGP4
2D轨道图
3D轨道图
轨道高度分析图
轨道倾角分析图
轨道综合分析图
查看轨道综合分析图